ICO G1

Last updated on Thu Nov 21 2024 00:02:41 GMT+0000 (Coordinated Universal Time)

1 32763U 08016A 24325.27681639 -.00000171 00000+0 00000+0 0 9992 2 32763 5.1455 36.0039 0002207 188.3994 202.2036 1.00272202 60790
UTC large
Height (km)
Speed (km/s)
/
Latitude / Longitude
Inclination (degrees)
Orbital Period (minutes)
Azimuth
Elevation
Range (km)
Doppler Factor

Next 0 passes for location: London (51.5072 / 0.1276)

Sorry there are no passes over London.